Location: Ciechanow
(52.8812°N, 20.6195°E)
Time: 22:30:58
(UTC+02:00)

ISS - Pass Details

Date: 02 February 2019
Orbit: 411 x 421 km, 51.6° (Epoch: 16 October)

Event Time Altitude Azimuth Distance (km) Brightness Sun altitude
Rises 19:42:27 0° 280° (W) 2,379 1.3 -29.9°
Reaches altitude 10° 19:44:46 10° 267° (W) 1,512 -0.1 -30.3°
Enters shadow 19:45:20 13° 261° (W) 1,326 -0.5 -30.4°
